Enter 1 for switch on the LED and 0 for switch off

Red :
Green :
Blue :


// // //
ID Jam DATA ANALOGNILAI DATA ANALOGNILAI HUMIDITY TEMPERATURE HEAT INDEX ARAH ANGIN KECEPATAN ANGIN CURAH HUJAN CURAH Menit CURAH Jam CURAH Hari JAM
156992018-04-25 03:05:53A2758A1667582068W000
156982018-04-25 03:05:28A2805A1732572068W000
156972018-04-25 03:05:04A2797A1719571966.2W000
156962018-04-25 03:04:40A2756A1665582068W000
156952018-04-25 03:04:15A2755A1658582068W000
156942018-04-25 03:03:51A2720A1610572068W000
156932018-04-25 03:03:28A2758A1669571966.2W000
156922018-04-25 03:03:02A2749A1655582068W000
156912018-04-25 03:02:38A2748A1645571966.2W000
156902018-04-25 03:02:14A2776A1691571966.2W000
156892018-04-25 03:01:51A2992A1848492271.6W000
156882018-04-25 03:00:22A2765A1626202271.6000
156872018-04-25 02:59:58A2823A1706202169.8000
156862018-04-25 02:59:33A2741A1596202169.8000
156852018-04-25 02:59:09A2721A1572202271.6000
156842018-04-25 02:58:45A2741A1593202169.8000
156832018-04-25 02:58:20A2789A1657202169.8000
156822018-04-25 02:57:56A2813A1693202169.8000
156812018-04-25 02:57:31A2741A1592202169.8000
156802018-04-25 02:57:07A2724A1574202169.8000

Contact: wibowo@cocktailogic.com

Phone : +628561749200